Location: Montemayor
(40.3484°N, 5.8943°W)
Time: 03:50:04
(UTC+00:00)

Daily predictions for brighter satellites

Satellite Brightness Start Highest point End
(mag) Time Altitude Azimuth Time Altitude Azimuth Time Altitude Azimuth
Cosmos 1697 Rocket 3.5 00:10:39 38° E 00:10:39 38° E 00:15:29 10° NE
Meteor 2-16 Rocket 4.4 00:10:00 66° SE 00:10:36 70° E 00:16:42 10° NNE
Cosmos 1356 Rocket 4.4 00:08:24 10° N 00:11:49 43° NE 00:11:49 43° NE
ATLAS CENTAUR R/B 3.7 00:11:02 10° N 00:12:31 22° NNE 00:12:31 22° NNE
Cosmos 1626 Rocket 4.3 00:18:07 46° NE 00:18:07 46° NE 00:21:29 10° NNE
Cosmos 2227 Rocket 2.3 00:18:42 10° NNW 00:24:22 65° ENE 00:25:05 59° ESE
Cosmos 2058 Rocket 3.9 00:24:33 10° NNW 00:28:06 46° WNW 00:28:06 46° WNW
ALOS 2 3.9 00:31:08 33° WNW 00:31:08 33° WNW 00:34:14 10° NNW
SL-08 ROCKET BODY 4.2 00:33:24 73° SE 00:33:52 78° E 00:39:43 10° N
Cosmos 1745 Rocket 3.8 00:36:17 71° S 00:36:59 85° E 00:43:09 10° N
Cosmos 841 Rocket 4.4 00:37:44 38° E 00:37:44 38° E 00:42:14 10° NE
Meteor 1-21 Rocket 4.4 00:40:34 57° ESE 00:40:56 58° E 00:46:35 10° NNE
Cosmos 1300 4.4 00:37:47 10° NNW 00:40:00 29° NW 00:40:00 29° NW
CZ-4C R/B 2.0 00:44:45 68° W 00:45:03 70° NW 00:50:49 10° NNE
BREEZE-M DEB (TANK) 3.4 00:41:54 10° WNW 00:50:28 19° SE 00:53:20 10° SE
Cosmos 1763 Rocket 3.3 00:45:56 83° NNE 00:45:56 83° NNE 00:50:50 10° NNE
Helios 1B rocket 3.1 00:42:24 10° NNE 00:45:37 51° NE 00:45:37 51° NE
Cosmos 1812 Rocket 4.0 00:43:15 10° N 00:47:07 59° NE 00:47:07 59° NE
Cosmos 1602 Rocket 4.0 00:55:31 56° NNW 00:55:31 56° NNW 00:59:06 10° N
PSLV R/B 3.9 00:51:07 10° NNE 00:54:54 65° N 00:54:54 65° N
CZ-2D R/B 4.0 00:52:12 10° NE 00:55:41 18° E 00:56:32 17° ESE
Cosmos 2208 Rocket 4.3 00:56:36 55° ESE 00:56:36 55° ESE 01:01:46 10° NNE
Meteor 2-10 Rocket 3.5 00:54:14 10° N 00:59:20 66° ENE 00:59:33 65° E
USA 81 4.1 01:01:00 66° ESE 01:01:17 68° E 01:06:32 10° N
Cosmos 1386 Rocket 4.5 01:01:25 58° WSW 01:02:18 66° W 01:08:31 10° N
Lacrosse 4 Rocket 2.0 00:59:44 10° NNW 01:03:15 56° N 01:03:15 56° N
Cosmos 1980 Rocket 2.2 01:07:19 61° SE 01:07:39 63° ESE 01:13:14 10° NNE
Cosmos 2181 Rocket 4.5 01:06:55 10° N 01:13:16 57° E 01:15:27 39° SE
Cosmos 1703 4.0 01:15:39 51° NE 01:15:39 51° NE 01:18:44 10° NNE
Cosmos 2369 3.8 01:15:15 57° WSW 01:16:01 64° WNW 01:21:40 10° NNE
CZ-4 R/B 4.3 01:11:37 10° N 01:16:09 49° WNW 01:16:09 49° WNW
USA 215 3.2 01:13:42 27° SE 01:17:34 89° NE 01:24:09 10° NW
Cosmos 1455 3.2 01:13:56 10° N 01:16:34 44° N 01:16:34 44° N
SJ 16-02 2.7 01:19:08 10° NW 01:21:57 30° WNW 01:21:57 30° WNW
Cosmos 540 Rocket 3.3 01:23:50 80° SW 01:24:05 84° WNW 01:29:15 10° NNE
Cosmos 1709 Rocket 3.9 01:24:39 59° SW 01:25:44 73° W 01:31:55 10° N
SL-16 R/B 3.5 01:24:14 21° SE 01:27:56 43° ENE 01:33:43 10° N
Cosmos 2263 Rocket 3.8 01:23:12 10° N 01:28:05 30° ENE 01:32:56 10° ESE
Cosmos 2297 Rocket 3.3 01:25:39 10° NW 01:29:49 29° W 01:29:49 29° W
Cosmos 2360 4.3 01:29:50 55° WSW 01:30:49 64° WNW 01:36:30 10° NNE
STARLINK-1291 4.3 01:32:11 45° NNE 01:32:11 45° NNE 01:35:02 10° NE
STARLINK-1264 4.3 01:35:13 46° N 01:35:13 46° N 01:38:11 10° NE
Cosmos 1758 Rocket 4.0 01:35:24 52° WNW 01:35:24 52° WNW 01:39:25 10° N
SL-19 R/B 4.3 01:31:22 10° NNE 01:37:04 81° WNW 01:38:19 57° SSW
STARLINK-1274 4.4 01:38:05 41° N 01:38:05 41° N 01:40:52 10° NE
STARLINK-1267 4.3 01:38:17 46° N 01:38:17 46° N 01:41:23 10° NE
ADEOS II 4.2 01:35:38 10° NE 01:39:03 17° E 01:41:31 13° ESE
NPP 4.5 01:35:25 10° NNE 01:40:30 41° E 01:41:55 34° SE
Cosmos 489 Rocket 4.4 01:39:47 55° S 01:41:16 82° ESE 01:47:33 10° NNE
Cosmos 2084 Rocket 3.6 01:39:42 10° NNW 01:44:11 78° NE 01:44:36 70° ESE
STARLINK-1207 4.3 01:44:27 44° NNW 01:44:27 44° NNW 01:47:48 10° NE
Cosmos 2082 4.0 01:38:56 10° NW 01:44:19 48° WSW 01:44:20 48° WSW
Cosmos 1937 Rocket 3.9 01:40:22 10° NNW 01:45:14 46° W 01:45:14 46° W
Cosmos 2322 Rocket 3.4 01:44:19 26° SE 01:45:53 30° ESE 01:50:42 10° NE
STARLINK-1266 4.3 01:47:33 42° NNW 01:47:33 42° NNW 01:51:02 10° NE
Cosmos 2285 Rocket 4.0 01:41:39 10° NNW 01:47:55 63° WSW 01:49:15 51° SSW
STARLINK-64 4.2 01:50:05 45° ENE 01:50:05 45° ENE 01:52:42 10° NE
STARLINK-1284 4.4 01:50:40 40° NW 01:50:44 40° NNW 01:54:16 10° NE
Cosmos 1400 Rocket 2.9 01:46:43 10° N 01:50:52 74° E 01:50:54 74° E
Cosmos 2278 4.3 01:51:33 39° W 01:52:59 47° WNW 01:58:27 10° NNE
Cosmos 1953 Rocket 3.6 01:53:16 64° W 01:53:16 64° W 01:57:39 10° N
STARLINK-1258 4.4 01:53:47 37° NW 01:54:01 38° NNW 01:57:30 10° NE
Cosmos 1697 Rocket 4.0 01:52:22 25° W 01:54:16 30° WNW 01:59:16 10° N
STARLINK-1278 3.9 01:54:46 57° ESE 01:54:46 57° ESE 01:58:34 10° ENE
STARLINK-1304 4.2 01:55:17 46° ESE 01:55:17 46° ESE 01:58:44 10° ENE
NOSS 2-1 (C) 4.0 01:56:56 40° E 01:56:56 40° E 01:59:32 10° NE
STARLINK-1280 3.9 01:56:32 60° ESE 01:56:32 60° ESE 02:00:25 10° ENE
Alouette 2 Rocket 4.4 01:52:15 10° NNW 01:55:39 35° WNW 01:55:39 35° WNW
GP-B 2.9 01:53:58 10° N 01:58:27 89° ESE 01:58:48 75° S
Cosmos-2242 3.6 01:55:15 10° NNW 01:58:48 42° WNW 01:58:48 42° WNW
NOSS 2-1 (D) 3.7 02:01:41 47° ENE 02:01:41 47° ENE 02:04:27 10° NE
Cosmos 372 Rocket 3.8 01:55:55 10° NNW 02:01:04 77° WSW 02:02:04 58° S
Cosmos 2221 3.8 01:58:03 10° N 02:02:07 37° ENE 02:03:59 25° SE
Cosmos 1842 Rocket 4.3 02:00:16 10° N 02:04:37 49° E 02:06:07 34° SE
BREEZE-M DEB (TANK) 4.4 02:04:02 10° NNW 02:05:12 12° N 02:06:18 10° NNE
Cosmos 2150 Rocket 3.9 02:00:58 10° NNW 02:06:09 87° ENE 02:07:51 44° SSE
Meteor 1-27 4.2 02:01:21 10° N 02:06:56 77° E 02:09:18 36° SSE
Cosmos 2227 Rocket 4.0 02:04:19 10° WNW 02:06:53 16° W 02:06:53 16° W
Resurs 1-4 Rocket 2.0 02:02:58 10° NNE 02:08:18 87° ESE 02:09:47 49° S
STARLINK-1286 3.5 02:09:41 72° SE 02:09:43 72° SE 02:13:53 10° NE
Cosmos 2074 Rocket 3.9 02:10:21 43° SSW 02:12:36 80° W 02:18:55 10° N
AQUA 4.0 02:07:58 10° NNE 02:12:43 64° ESE 02:14:00 45° SSE
Cosmos 2227 4.3 02:07:06 10° NNW 02:12:52 79° ENE 02:16:34 23° SSE
STARLINK-48 3.9 02:13:03 49° WNW 02:13:30 52° NW 02:17:20 10° NE
STARLINK-1281 3.5 02:14:25 74° SSE 02:14:35 76° SE 02:18:44 10° NE
UNK 3.6 02:14:55 54° S 02:15:56 83° WSW 02:20:32 10° NNW
IKONOS-2 4.4 02:15:30 59° SSE 02:16:17 89° WSW 02:20:36 10° NNW
CZ-4C R/B 3.5 02:18:37 60° SW 02:19:03 64° W 02:23:28 10° NNW
Iridium 2 4.0 02:15:40 10° N 02:19:25 62° E 02:20:03 51° SE
STARLINK-1310 3.4 02:19:11 73° SSW 02:19:32 83° SE 02:23:41 10° NE
SL-16 R/B 2.2 02:18:32 41° S 02:20:30 73° ESE 02:26:10 10° NNE
GEOS 3 Rocket 4.3 02:15:49 10° SE 02:20:51 55° NE 02:26:00 10° NNW
Cosmos 1125 Rocket 3.6 02:17:29 10° NNW 02:22:42 75° ENE 02:25:57 23° SSE
Shenzhou-11 Module 4.0 02:24:52 21° ENE 02:24:52 21° ENE 02:25:54 10° ENE
STARLINK-1319 3.5 02:23:58 66° SW 02:24:31 89° NNW 02:28:40 10° NE
BREEZE-M DEB (TANK) 4.5 02:27:52 - ESE 02:27:52 - ESE 02:22:22 10° NW
Cosmos 1315 Rocket 3.1 02:21:17 10° N 02:25:12 63° E 02:26:25 40° SE
Cosmos 2058 3.6 02:23:57 35° SE 02:25:17 50° E 02:29:22 10° NNE
STARLINK-1277 3.5 02:28:45 59° WSW 02:29:29 82° NW 02:33:39 10° NE
FALCON 9 R/B 4.0 02:26:04 24° WSW 02:30:32 48° S 02:52:43 10° SE
Cosmos 2298 Rocket 4.3 02:27:26 10° NNW 02:32:33 49° WSW 02:33:49 40° SW
STARLINK-1276 3.6 02:33:32 51° WSW 02:34:29 75° NW 02:38:38 10° NE
STARLINK-45 4.4 02:34:45 31° SE 02:34:48 31° SE 02:38:03 10° ENE
CZ-4C R/B 4.5 02:31:34 10° WNW 02:34:52 16° NNW 02:38:29 10° N
CZ-2D R/B 2.4 02:30:58 10° N 02:36:03 53° WNW 02:37:51 36° SW
STARLINK-70 4.4 02:36:13 31° SE 02:36:17 31° SE 02:39:31 10° ENE
Cosmos 2184 Rocket 4.2 02:34:21 34° SW 02:36:44 53° W 02:42:46 10° N
STARLINK-1306 3.8 02:35:45 45° WSW 02:36:54 68° NW 02:41:05 10° NE
STARLINK-76 4.4 02:37:45 30° SE 02:37:54 30° SE 02:41:08 10° ENE
STARLINK-1305 3.7 02:38:17 44° WSW 02:39:25 68° NW 02:43:34 10° NE
STARLINK-23 4.3 02:39:20 31° SE 02:39:32 31° SE 02:42:47 10° ENE
STARLINK-32 4.3 02:40:54 32° SE 02:41:09 32° SE 02:44:25 10° ENE
STARLINK-40 4.2 02:42:27 33° SE 02:42:45 34° SE 02:46:04 10° ENE
IRIDIUM 104 4.4 02:40:53 28° S 02:43:43 79° E 02:48:57 10° N
Cosmos 2360 Rocket 2.8 02:40:54 23° S 02:44:03 48° ESE 02:49:27 10° NE
STARLINK-44 4.1 02:43:59 34° SSE 02:44:20 35° SE 02:47:40 10° ENE
STARLINK-1262 3.9 02:43:06 39° W 02:44:27 63° NW 02:48:34 10° NE
Cosmos 1610 Rocket 4.5 02:42:51 32° SSW 02:45:48 68° W 02:52:00 10° N
STARLINK-37 3.9 02:45:43 38° SSE 02:46:08 40° SE 02:49:33 10° ENE
STARLINK-36 4.0 02:47:05 36° SSE 02:47:33 37° SE 02:50:55 10° ENE
BREEZE-M DEB (TANK) 3.8 02:46:31 30° WSW 02:48:57 82° NNW 03:04:13 10° ENE
STARLINK-1300 4.0 02:47:54 34° W 02:49:27 57° NW 02:53:33 10° NE
NOSS 2-1 (E) 3.7 02:49:47 35° W 02:50:30 41° NW 02:53:54 10° NNE
STARLINK-63 3.8 02:50:22 39° SSE 02:50:57 43° SE 02:54:24 10° ENE
Cosmos 1980 Rocket 4.0 02:49:04 14° W 02:52:08 20° NW 02:56:16 10° N
STARLINK-35 3.9 02:51:50 38° SSE 02:52:29 42° SE 02:55:56 10° ENE
IRIDIUM 114 4.3 02:50:01 28° S 02:52:51 85° W 02:58:06 10° N
STARLINK-51 3.8 02:53:25 39° SSE 02:54:06 44° SE 02:57:35 10° ENE
SL-08 R/B 3.9 02:49:50 10° SSE 02:54:21 55° ENE 02:58:52 10° N
STARLINK-1295 4.1 02:52:40 30° W 02:54:26 53° NW 02:58:30 10° NE
Cosmos 2333 Rocket 4.2 02:50:22 10° SSE 02:54:29 21° E 02:58:36 10° NE
STARLINK-71 4.0 02:53:35 36° S 02:54:42 48° SE 02:58:35 10° ENE
STARLINK-30 3.8 02:54:59 39° S 02:55:44 46° SE 02:59:13 10° ENE
STARLINK-72 3.7 02:56:32 39° S 02:57:21 48° SE 03:00:51 10° ENE
CBERS-1 4.1 02:53:43 10° N 02:58:49 67° WNW 03:01:26 29° SSW
STARLINK-1287 4.3 02:57:26 26° W 02:59:24 48° NW 03:03:27 10° NE
SL-4 R/B 2.6 02:54:46 10° NW 02:59:36 72° NE 03:04:10 10° ESE
STARLINK-59 3.5 02:59:45 40° S 03:00:41 55° SE 03:04:14 10° ENE
USA 215 4.2 03:00:58 23° SW 03:01:03 23° WSW 03:06:06 10° WNW
STARLINK-50 3.8 03:00:19 36° S 03:01:26 51° SE 03:05:09 10° ENE
STARLINK-1009 4.4 03:00:17 29° S 03:01:45 40° SE 03:05:38 10° ENE
IRIDIUM 103 4.3 02:59:10 27° SSW 03:02:01 70° W 03:07:15 10° N
STARLINK-56 3.6 03:01:13 39° S 03:02:12 54° SE 03:05:45 10° ENE
Cosmos 2219 Rocket 4.1 02:58:22 10° SSE 03:02:37 23° E 03:06:52 10° NE
STARLINK-73 3.5 03:02:47 39° SSW 03:03:50 56° SE 03:07:23 10° ENE
STARLINK-68 3.4 03:03:45 39° SSW 03:04:54 63° SE 03:08:33 10° ENE
STARLINK-38 3.4 03:04:21 38° SSW 03:05:27 59° SE 03:09:01 10° ENE
H-2A R/B 3.8 03:01:54 10° SE 03:05:53 34° ENE 03:09:57 10° N
Cosmos 1076 Rocket 3.7 03:04:48 31° SW 03:06:39 57° W 03:10:58 10° N
STARLINK-1015 4.3 03:05:05 29° S 03:06:43 44° SE 03:10:40 10° ENE
STARLINK-65 3.4 03:05:56 37° SSW 03:07:05 61° SE 03:10:40 10° ENE
Cosmos 962 Rocket 4.4 03:04:04 22° SSW 03:08:12 77° W 03:14:25 10° N
STARLINK-53 3.3 03:07:34 37° SSW 03:08:48 67° SE 03:12:24 10° NE
Cosmos 2154 Rocket 4.5 03:07:30 24° SW 03:10:55 45° WNW 03:16:53 10° N
Cosmos 2151 3.3 03:08:15 18° S 03:11:17 64° E 03:15:33 10° NNE
STARLINK-60 2.9 03:08:16 10° NW 03:11:28 84° NE 03:14:40 10° SE
SL-16 R/B 3.4 03:09:19 23° SW 03:11:38 29° W 03:16:57 10° NW
STARLINK-1016 4.1 03:09:51 28° SSW 03:11:40 49° SE 03:15:40 10° ENE
Cosmos 2263 Rocket 2.7 03:06:55 10° NW 03:12:03 38° WSW 03:15:08 21° SSW
Cosmos 1892 3.2 03:12:00 31° SW 03:13:14 41° W 03:16:51 10° N
Cosmos 1869 4.1 03:11:28 10° NNW 03:14:53 31° W 03:15:49 27° WSW
CZ-2C R/B 4.4 03:11:43 10° NE 03:15:04 29° E 03:18:28 10° SSE
ERS-2 3.1 03:11:59 10° SSE 03:15:31 49° ENE 03:19:05 10° N
STARLINK-1008 4.0 03:14:39 27° SSW 03:16:38 54° SE 03:20:41 10° ENE
STARLINK-24 3.5 03:16:28 29° SW 03:18:26 81° SE 03:22:27 10° NE
ADEOS II 2.3 03:13:56 10° N 03:19:05 56° WNW 03:22:28 21° SW
STARLINK-1014 3.8 03:19:28 26° SSW 03:21:36 60° SE 03:25:40 10° ENE
IDEFIX/ARIANE 42P 3.3 03:19:19 10° NNE 03:24:27 51° E 03:29:32 10° S
Lacrosse 5 rocket 3.5 03:23:21 10° SSE 03:25:58 17° ESE 03:28:32 10° E
STARLINK-1025 3.7 03:24:13 24° SW 03:26:34 66° SE 03:30:41 10° NE
IRS-1D 4.4 03:23:21 10° N 03:28:07 36° WNW 03:31:19 18° SW
STARLINK-1444 1.9 03:26:22 10° NW 03:28:38 86° SW 03:31:02 10° SE
SL-19 R/B 4.3 03:24:25 10° N 03:28:40 74° WNW 03:31:06 20° SSW
STARLINK-1452 1.9 03:26:59 10° NW 03:29:15 84° SW 03:31:39 10° SE
Cosmos 2322 Rocket 3.0 03:26:08 18° WSW 03:29:45 38° WNW 03:34:58 10° N
STARLINK-1450 1.9 03:28:11 10° NW 03:30:25 80° SW 03:32:46 10° SE
IRS-1C 4.4 03:25:19 10° N 03:30:31 55° WNW 03:34:27 17° SW
STARLINK-1392 1.9 03:28:19 10° NW 03:30:33 80° SW 03:32:54 10° SE
STARLINK-1436 (VISORSAT) 1.9 03:28:18 10° NW 03:30:33 80° SW 03:32:56 10° SE
STARLINK-1399 1.9 03:28:20 10° NW 03:30:34 80° SW 03:32:55 10° SE
STARLINK-1415 1.9 03:28:21 10° NW 03:30:34 80° SW 03:32:55 10° SE
STARLINK-1394 1.9 03:28:21 10° NW 03:30:34 80° SW 03:32:56 10° SE
STARLINK-1414 1.9 03:28:20 10° NW 03:30:35 80° SW 03:32:58 10° SE
STARLINK-1397 1.9 03:28:22 10° NW 03:30:35 80° SW 03:32:57 10° SE
STARLINK-1401 1.9 03:28:22 10° NW 03:30:35 80° SW 03:32:57 10° SE
STARLINK-1396 1.9 03:28:22 10° NW 03:30:35 80° SW 03:32:57 10° SE
STARLINK-1393 1.9 03:28:22 10° NW 03:30:35 80° SW 03:32:56 10° SE
STARLINK-1395 1.9 03:28:21 10° NW 03:30:35 80° SW 03:32:56 10° SE
STARLINK-1416 1.9 03:28:21 10° NW 03:30:36 80° SW 03:32:59 10° SE
STARLINK-1404 1.9 03:28:23 10° NW 03:30:37 80° SW 03:32:58 10° SE
STARLINK-1453 1.9 03:28:23 10° NW 03:30:37 80° SW 03:32:58 10° SE
STARLINK-1398 1.9 03:28:21 10° NW 03:30:37 80° SW 03:33:00 10° SE
STARLINK-1408 1.9 03:28:22 10° NW 03:30:38 80° SW 03:33:00 10° SE
STARLINK-1402 1.9 03:28:25 10° NW 03:30:38 80° SW 03:33:00 10° SE
STARLINK-1417 1.9 03:28:25 10° NW 03:30:38 80° SW 03:33:00 10° SE
STARLINK-1413 1.9 03:28:26 10° NW 03:30:39 80° SW 03:33:00 10° SE
STARLINK-1419 1.9 03:28:24 10° NW 03:30:39 80° SW 03:33:02 10° SE
STARLINK-1406 1.9 03:28:26 10° NW 03:30:40 80° SW 03:33:01 10° SE
STARLINK-1440 1.9 03:28:28 10° NW 03:30:42 80° SW 03:33:03 10° SE
STARLINK-1420 1.9 03:28:26 10° NW 03:30:42 80° SW 03:33:05 10° SE
STARLINK-1445 1.9 03:28:29 10° NW 03:30:42 80° SW 03:33:03 10° SE
STARLINK-1422 1.9 03:28:28 10° NW 03:30:43 80° SW 03:33:06 10° SE
STARLINK-1443 1.9 03:28:30 10° NW 03:30:43 80° SW 03:33:04 10° SE
STARLINK-1454 1.9 03:28:30 10° NW 03:30:43 80° SW 03:33:04 10° SE
STARLINK-1460 1.9 03:28:28 10° NW 03:30:44 80° SW 03:33:07 10° SE
STARLINK-1457 1.9 03:28:31 10° NW 03:30:44 80° SW 03:33:05 10° SE
STARLINK-1456 1.9 03:28:31 10° NW 03:30:44 80° SW 03:33:06 10° SE
STARLINK-1451 1.9 03:28:31 10° NW 03:30:45 79° SW 03:33:06 10° SE
STARLINK-1458 1.9 03:28:30 10° NW 03:30:46 80° SW 03:33:08 10° SE
STARLINK-1442 1.9 03:28:33 10° NW 03:30:46 79° SW 03:33:07 10° SE
STARLINK-1410 1.9 03:28:36 10° NW 03:30:49 79° SW 03:33:10 10° SE
STARLINK-1400 1.9 03:28:36 10° NW 03:30:49 79° SW 03:33:10 10° SE
STARLINK-1405 1.9 03:28:35 10° NW 03:30:49 79° SW 03:33:10 10° SE
STARLINK-1421 1.9 03:28:35 10° NW 03:30:49 79° SW 03:33:10 10° SE
STARLINK-1437 1.9 03:28:33 10° NW 03:30:49 80° SW 03:33:12 10° SE
STARLINK-1446 1.9 03:28:33 10° NW 03:30:49 80° SW 03:33:12 10° SE
STARLINK-1407 1.9 03:28:36 10° NW 03:30:49 79° SW 03:33:11 10° SE
STARLINK-1439 1.9 03:28:37 10° NW 03:30:51 79° SW 03:33:12 10° SE
STARLINK-1409 1.9 03:28:37 10° NW 03:30:51 79° SW 03:33:12 10° SE
STARLINK-1423 1.9 03:28:35 10° NW 03:30:51 80° SW 03:33:14 10° SE
STARLINK-1351 1.9 03:28:38 10° NW 03:30:52 79° SW 03:33:13 10° SE
STARLINK-1370 1.9 03:28:38 10° NW 03:30:52 79° SW 03:33:13 10° SE
STARLINK-1447 1.9 03:28:36 10° NW 03:30:52 80° SW 03:33:15 10° SE
STARLINK-1418 1.9 03:28:39 10° NW 03:30:52 79° SW 03:33:13 10° SE
STARLINK-1434 1.9 03:28:39 10° NW 03:30:52 79° SW 03:33:14 10° SE
STARLINK-1455 1.9 03:28:36 10° NW 03:30:52 80° SW 03:33:16 10° SE
STARLINK-1441 1.9 03:28:37 10° NW 03:30:53 80° SW 03:33:17 10° SE
STARLINK-1403 1.9 03:28:40 10° NW 03:30:53 79° SW 03:33:14 10° SE
STARLINK-1433 1.9 03:28:41 10° NW 03:30:54 79° SW 03:33:16 10° SE
STARLINK-1448 1.9 03:28:39 10° NW 03:30:54 80° SW 03:33:19 10° SE
STARLINK-1449 1.9 03:28:39 10° NW 03:30:55 80° SW 03:33:19 10° SE
STARLINK-1411 1.9 03:28:42 10° NW 03:30:55 79° SW 03:33:17 10° SE
STARLINK-1438 1.9 03:28:42 10° NW 03:30:55 79° SW 03:33:17 10° SE
STARLINK-1412 1.9 03:28:48 10° NW 03:31:03 79° SW 03:33:27 10° SE
STARLINK-1017 3.6 03:28:59 22° SW 03:31:32 73° SE 03:35:40 10° NE
STARLINK-1023 3.6 03:33:45 21° SW 03:36:30 81° SE 03:40:39 10° NE
ARIANE 5 R/B 2.6 03:31:37 10° N 03:36:35 63° WNW 03:40:39 15° SSW
STARLINK-25 3.3 03:34:34 21° WSW 03:36:41 68° NW 03:40:08 10° NE
Cosmos 2221 4.2 03:36:28 10° NW 03:39:21 17° W 03:40:49 15° WSW
STARLINK-1007 3.6 03:38:34 19° SW 03:41:30 88° SE 03:45:39 10° NE
Cosmos 2366 rocket 4.0 03:36:30 10° S 03:42:43 79° W 03:49:03 10° N
STARLINK-29 3.0 03:40:27 10° NW 03:43:38 78° NE 03:46:48 10° SE
SL-24 DEB 4.3 03:40:30 10° N 03:45:01 58° W 03:49:19 11° SSW
STARLINK-1048 3.6 03:43:20 17° SW 03:46:28 84° NW 03:50:37 10° NE
Resurs 1-4 Rocket 4.2 03:45:08 10° NW 03:47:21 13° WNW 03:49:35 10° W
STARLINK-81 3.6 03:44:55 16° WSW 03:47:39 59° NW 03:51:15 10° NE
STARLINK-54 3.8 03:46:40 15° WSW 03:49:30 51° NW 03:53:04 10° NE
MSX 4.3 03:44:15 10° NNE 03:49:57 62° ESE 03:55:36 10° S
Cosmos 1825 2.9 03:48:01 16° SW 03:50:37 37° WNW 03:54:08 10° N
Cosmos 1408 4.0 03:48:51 15° WSW 03:50:53 24° WNW 03:53:55 10° NNW
STARLINK-77 3.7 03:48:03 15° WSW 03:50:55 55° NW 03:54:30 10° NE
STARLINK-1049 3.7 03:48:08 15° SW 03:51:27 77° NW 03:55:36 10° NE
USA 229 DEB 4.5 03:45:29 10° NW 03:52:02 35° WSW 03:58:48 10° S
USA 229 4.5 03:45:35 10° NW 03:52:09 36° WSW 03:58:56 10° S
STARLINK-79 3.8 03:52:46 13° WSW 03:55:50 50° NW 03:59:23 10° NE
STARLINK-1051 3.7 03:52:53 14° WSW 03:56:24 71° NW 04:00:33 10° NE
STARLINK-78 3.9 03:54:20 13° WSW 03:57:28 48° NW 04:01:00 10° NE
Cosmos 1328 Rocket 3.6 03:53:07 10° N 03:57:32 84° E 04:01:53 10° S
Cosmos 2237 Rocket 4.3 03:53:32 10° SSE 03:57:51 23° E 04:02:12 10° NE
CZ-4B R/B 3.8 03:55:30 10° SE 03:58:03 24° ENE 04:00:40 10° NNE
Shenzhou-11 Module 2.4 03:55:45 10° WNW 03:58:08 47° N 04:00:30 10° E
STARLINK-57 4.0 03:56:00 12° WSW 03:59:13 44° NNW 04:02:43 10° NE
STARLINK-49 4.0 03:57:28 11° WSW 04:00:44 45° NNW 04:04:14 10° NE
NOSS 3-1 (A) 4.4 03:53:57 10° NW 04:01:25 46° WSW 04:09:41 10° S
STARLINK-27 4.1 03:59:03 11° WSW 04:02:22 44° NW 04:05:52 10° NE
STARLINK-74 4.1 04:00:36 10° WSW 04:04:00 42° NNW 04:07:28 10° NE
PSLV R/B 4.3 04:00:24 10° NNE 04:04:29 51° E 04:08:34 10° S
SL-16 R/B 4.0 04:01:24 10° W 04:05:13 18° NW 04:09:02 10° N
STARLINK-39 4.2 04:02:10 10° WSW 04:05:37 41° NNW 04:09:05 10° NE
Spot 4 Rocket 4.5 04:01:16 10° N 04:06:11 47° WNW 04:11:04 10° SW
STARLINK-1028 4.0 04:02:28 11° WSW 04:06:24 59° NW 04:10:30 10° NE
COSMOS 2428 2.9 04:01:21 10° SSW 04:06:59 74° ESE 04:12:40 10° NNE
Cosmos 1844 Rocket 2.7 04:01:38 10° NNW 04:07:11 67° WSW 04:12:41 10° S
STARLINK-31 4.2 04:03:51 10° WSW 04:07:17 39° NNW 04:10:43 10° NE
STARLINK-1010 4.1 04:04:26 10° WSW 04:08:34 55° NW 04:12:45 10° NE
STARLINK-69 4.4 04:05:43 10° W 04:09:05 36° NNW 04:12:28 10° NE
Cosmos 1727 Rocket 4.0 04:03:50 10° N 04:10:01 77° W 04:16:10 10° S
STARLINK-21 4.3 04:07:10 10° W 04:10:33 37° NNW 04:13:57 10° NE
Cosmos 1933 3.3 04:07:10 10° NNW 04:11:11 73° W 04:15:11 10° S
BREEZE-M R/B 4.1 04:08:49 10° NW 04:11:23 27° NNE 04:13:32 10° E
STARLINK-1021 4.1 04:07:22 10° WSW 04:11:25 54° NW 04:15:30 10° NE
Cosmos 2098 4.5 04:08:44 10° SSW 04:11:54 75° W 04:15:53 10° N
Cosmos 1340 3.1 04:09:32 10° S 04:13:14 62° E 04:16:57 10° NNE
Landsat 5 3.8 04:08:55 10° S 04:13:21 56° W 04:17:46 10° NNW
STARLINK-1342 4.5 04:10:42 10° NW 04:13:40 39° NNE 04:16:37 10° ESE
STARLINK-70 4.5 04:10:31 10° W 04:13:49 33° NNW 04:17:07 10° NE
STARLINK-1364 4.5 04:11:02 10° NW 04:14:00 39° NNE 04:16:58 10° ESE
STARLINK-1376 4.5 04:11:22 10° NW 04:14:21 39° NE 04:17:18 10° ESE
Cosmos 1818 4.0 04:09:20 10° SSW 04:14:38 61° ESE 04:20:00 10° NE
STARLINK-1360 4.4 04:11:42 10° NW 04:14:41 40° NNE 04:17:39 10° ESE
STARLINK-1361 4.4 04:12:03 10° NW 04:15:01 40° NNE 04:18:00 10° ESE
STARLINK-1367 4.4 04:12:20 10° NW 04:15:21 41° NE 04:18:21 10° ESE
STARLINK-76 4.5 04:12:10 10° W 04:15:30 34° NNW 04:18:50 10° NE
STARLINK-1366 4.4 04:12:43 10° NW 04:15:41 41° NNE 04:18:40 10° ESE
STARLINK-1019 4.2 04:12:20 10° WSW 04:16:22 50° NW 04:20:25 10° NE
STARLINK-52 3.1 04:15:54 10° WNW 04:19:02 50° SW 04:22:07 10° SSE
STARLINK-1012 4.3 04:17:23 10° WSW 04:21:22 46° NNW 04:25:23 10° NE
CZ-4C R/B 3.8 04:18:06 10° SSW 04:21:24 33° W 04:24:44 10° NNW
Cosmos 1500 Rocket 3.9 04:17:26 10° S 04:21:51 72° E 04:26:19 10° NNE
PAYLOAD A 4.1 04:19:34 10° NNE 04:24:19 75° ESE 04:29:12 10° S
CZ-3 R/B 4.0 03:51:46 10° WSW 04:25:23 47° S 04:34:19 10° ESE
Cosmos 1408 Rocket 3.9 04:22:00 10° SSW 04:26:08 46° W 04:30:17 10° N
Iridium 4 Rocket 3.9 04:21:15 10° S 04:26:09 70° E 04:31:35 10° N
Cosmos 2278 Rocket 4.0 04:21:26 10° N 04:26:43 38° ENE 04:31:57 10° SE
